Location: Conway Observatory, Indiana
(41.2910°N, 87.4210°W)
Time: 03:49:00
(UTC-05:00)

ISS - Visible Passes

Search period start: 23 May 2017 00:00
Search period end: 02 June 2017 00:00
Orbit: 402 x 409 km, 51.6° (Epoch: 23 May)

Date Brightness Start Highest point End Pass type
(mag) Time Alt. Az. Time Alt. Az. Time Alt. Az.
23 May -0.9 00:25:09 16° NW 00:26:08 17° NNW 00:28:27 10° NNE visible
23 May -0.5 02:01:45 10° NNW 02:03:37 14° N 02:05:28 10° NE visible
23 May -1.8 03:37:54 10° NW 03:40:53 31° NNE 03:43:51 10° E visible
23 May -4.0 21:53:51 10° SW 21:57:07 68° SE 22:00:24 10° ENE visible
23 May -1.3 23:31:12 10° WNW 23:33:53 22° NNW 23:36:34 10° NE visible
24 May -0.4 01:09:31 10° NNW 01:11:17 14° N 01:13:02 10° NNE visible
24 May -1.2 02:46:02 10° NW 02:48:41 22° NNE 02:51:20 10° ENE visible
24 May -3.9 04:22:11 10° WNW 04:25:27 70° SW 04:28:41 10° SE visible
24 May -3.2 21:02:09 10° SSW 21:05:10 34° SE 21:08:12 10° ENE visible
24 May -1.9 22:38:40 10° W 22:41:40 32° NNW 22:44:40 10° NE visible
25 May -0.5 00:17:02 10° NW 00:18:56 14° N 00:20:48 10° NNE visible
25 May -0.8 01:54:07 10° NNW 01:56:24 17° NNE 01:58:41 10° ENE visible
25 May -3.4 03:30:09 10° NW 03:33:24 63° NNE 03:36:39 10° ESE visible
25 May -2.9 21:46:18 10° WSW 21:49:31 51° NNW 21:52:45 10° NE visible
25 May -0.7 23:24:24 10° NW 23:26:35 16° NNW 23:28:46 10° NNE visible
26 May -0.6 01:02:06 10° NNW 01:04:04 15° N 01:06:02 10° NE visible
26 May -2.3 02:38:11 10° NW 02:41:16 36° NNE 02:44:20 10° E visible
26 May -2.9 04:14:50 10° WNW 04:17:41 27° SW 04:20:30 10° SSE visible
26 May -3.9 20:54:08 10° SW 20:57:25 87° SE 21:00:44 10° NE visible
26 May -1.0 22:31:43 10° WNW 22:34:16 20° NNW 22:36:49 10° NNE visible
27 May -0.5 00:09:55 10° NNW 00:11:42 14° N 00:13:29 10° NE visible
27 May -1.5 01:46:16 10° NW 01:49:03 25° NNE 01:51:10 14° ENE visible
27 May -2.1 03:22:31 10° WNW 03:27:43 20° SSE 03:28:54 10° SE visible
27 May -1.5 21:39:06 10° W 21:41:59 27° NNW 21:44:53 10° NE visible
27 May -0.5 23:17:29 10° NW 23:19:18 14° N 23:21:07 10° NNE visible
28 May -1.1 00:54:20 10° NNW 00:56:46 19° NNE 00:57:31 17° NE visible
28 May -2.4 20:46:37 10° WSW 20:49:46 42° NNW 20:52:56 10° NE visible
28 May -0.7 22:24:51 10° NW 22:26:55 15° N 22:28:58 10° NNE visible
29 May -0.7 00:02:19 10° NNW 00:04:25 15° N 00:06:17 11° NE visible
29 May -0.9 01:38:22 10° NW 01:38:53 14° NW 01:38:53 14° NW visible
29 May -0.8 21:32:08 10° WNW 21:34:33 18° NNW 21:36:58 10° NNE visible
29 May -0.7 23:10:11 10° NNW 23:12:00 14° N 23:13:50 10° NE visible
30 May -1.3 00:46:24 10° NW 00:48:02 22° NNW 00:48:02 22° NNW visible
30 May -0.7 22:17:48 10° NW 22:19:34 14° N 22:21:21 10° NNE visible
30 May -1.4 23:54:25 10° NNW 23:57:00 21° NNE 23:57:20 20° NNE visible
31 May -0.8 21:25:11 10° NW 21:27:08 15° N 21:29:06 10° NNE visible
31 May -1.0 23:02:25 10° NNW 23:04:37 16° NNE 23:06:43 11° NE visible
01 Jun -1.1 00:38:26 10° NW 00:39:21 17° NW 00:39:21 17° NW visible
01 Jun -0.9 22:10:17 10° NNW 22:12:11 14° N 22:14:06 10° NE visible
01 Jun -1.9 23:46:24 10° NW 23:48:47 30° N 23:48:47 30° N visible
